Theta_e
309 308 306 307 308 310 308 309 306 300 300 306 303 306 307 307 307 309 309 310 310 310 311 310 309 309 309 309 309 310 311 311 312 312 312 313 315 317
308 308 308 308 309 310 309 309 308 306 300 304 305 305 307 307 307 309 308 308 307 308 309 309 309 309 309 309 309 309 310 310 310 311 311 312 313 314
309 308 308 310 309 308 308 307 305 303 300 304 304 306 305 305 306 306 305 305 305 307 307 308 308 309 308 307 308 308 309 309 310 311 311 312 312 312
309 307 308 310 309 308 307 305 303 304 302 301 304 303 302 305 304 303 302 304 305 305 306 307 307 307 306 306 307 307 309 308 309 310 310 312 312 311
308 308 308 307 306 304 302 301 301 302 302 300 300 302 301 303 302 301 302 303 304 305 305 304 304 304 305 305 307 307 307 307 307 308 309 310 312 312
307 309 308 305 304 303 302 302 304 302 301 299 298 298 299 301 302 298 298 300 299 303 303 302 302 303 304 305 307 307 307 307 307 307 307 307 308 310
306 303 302 303 305 304 303 302 302 301 299 298 297 298 297 297 297 299 297 298 299 301 299 299 300 300 301 305 307 308 309 308 308 307 306 305 304 306
298 299 299 300 301 301 301 300 300 296 296 296 296 296 296 297 299 298 297 295 293 300 298 297 300 299 302 305 307 307 306 306 306 306 305 305 304 304
297 296 297 298 299 296 296 297 297 297 297 296 294 294 295 297 298 295 296 295 294 298 297 295 299 299 305 306 306 306 305 304 304 304 304 304 303 302
297 296 297 296 296 296 295 294 295 296 297 297 297 296 297 298 298 298 297 296 297 298 298 294 300 300 305 305 305 305 304 303 302 303 303 302 301 300
295 297 296 295 295 295 295 293 293 294 297 297 298 298 298 298 299 298 295 294 293 295 300 296 299 298 302 302 306 305 303 302 302 301 301 301 300 300
295 295 295 295 294 294 293 292 290 292 294 295 296 297 298 299 300 299 297 294 294 294 299 297 298 298 295 303 304 305 304 302 301 301 301 302 300 305
293 293 294 294 293 293 293 292 291 294 294 294 294 296 297 298 298 299 298 297 294 295 300 299 297 297 297 298 303 303 302 302 302 301 301 300 299 302
292 293 294 293 292 292 292 293 292 293 293 293 293 294 294 294 296 297 298 298 298 297 300 299 296 297 297 297 298 302 300 300 300 298 299 300 299 299
293 293 293 292 292 292 292 292 291 292 291 292 292 292 294 296 296 297 298 299 300 300 301 301 299 300 300 299 298 299 298 297 298 297 296 295 296 297
292 292 292 292 292 291 291 292 291 292 290 289 292 293 294 294 294 296 295 296 297 299 304 304 303 302 299 299 298 296 297 295 297 295 294 294 294 295
292 291 290 289 288 288 289 290 290 291 289 290 292 292 291 292 293 295 296 297 298 298 300 301 302 302 301 299 296 296 295 294 295 295 294 291 292 293
290 289 288 287 287 287 287 287 289 290 290 291 292 292 290 291 292 295 296 297 298 299 299 300 301 299 299 299 301 296 296 294 295 294 294 292 290 292
289 289 287 287 287 288 288 288 288 289 292 292 291 290 291 292 293 294 296 297 298 299 299 299 299 298 294 292 296 297 297 297 296 294 294 293 291 292
290 288 287 288 287 288 287 288 289 290 291 290 290 291 292 294 296 295 296 297 298 298 298 299 299 298 294 293 292 293 295 299 297 296 295 296 295 296
289 288 289 288 288 289 289 290 290 290 290 291 292 293 295 296 295 296 296 292 295 298 297 297 298 291 300 299 292 291 294 295 296 296 298 296 294 292
290 289 289 290 290 290 290 290 291 291 292 292 293 295 297 295 296 298 299 298 298 298 298 299 300 299 297 294 292 292 293 295 296 296 295 295 296 288
291 290 290 290 290 291 290 290 291 291 292 292 293 293 295 297 300 300 299 299 299 298 298 297 298 298 297 295 293 293 292 293 293 292 292 295 295 294
Wind_Speed
5 5 5 6 5 6 6 6 5 9 10 7 4 4 4 4 7 8 8 12 15 17 16 13 14 14 15 14 16 17 17 16 16 17 17 18 20 19
5 6 7 6 6 6 5 4 4 6 7 6 5 4 5 5 8 8 8 13 14 15 15 15 13 16 15 15 16 17 18 18 19 19 18 18 18 19
6 7 9 7 6 4 4 4 6 4 7 6 4 5 3 6 10 8 6 7 7 11 13 13 16 16 17 17 17 16 17 17 18 17 19 19 20 20
6 5 8 5 6 7 4 7 6 6 5 10 6 3 4 7 10 7 6 6 7 11 14 16 16 18 16 17 16 16 15 15 15 16 17 18 19 19
7 6 7 5 7 5 6 6 5 6 5 5 6 3 3 8 7 4 7 6 5 12 16 15 13 16 17 18 15 15 13 12 14 15 16 17 17 19
5 5 5 5 6 6 5 6 7 6 5 5 5 6 6 6 5 4 5 3 5 8 10 9 12 15 14 14 16 15 13 13 14 13 13 14 14 14
4 5 4 7 9 9 6 6 7 5 7 8 9 8 3 6 4 2 3 3 5 6 6 7 8 6 6 10 11 10 8 7 7 8 8 10 9 9
6 6 7 9 9 10 11 12 10 6 7 6 6 5 3 1 5 6 4 2 2 1 5 10 5 5 5 3 8 7 6 7 6 6 6 5 4 7
6 7 8 7 6 6 9 13 11 13 11 8 6 5 5 4 4 6 4 2 2 4 4 7 2 4 4 3 6 6 8 6 7 7 6 5 6 7
6 7 7 7 6 9 9 10 9 9 8 6 6 6 6 6 7 5 3 2 4 5 3 3 3 5 5 2 6 6 9 5 8 7 8 9 10 10
8 6 8 8 11 13 8 9 9 7 8 13 14 13 11 10 9 4 4 2 2 2 1 2 2 5 3 2 3 5 9 8 7 9 13 12 6 4
8 7 9 10 13 14 6 7 8 9 10 9 8 7 6 4 7 3 2 1 2 2 1 3 2 2 4 1 2 3 4 7 7 11 12 6 6 3
7 7 7 10 11 11 10 6 8 10 9 6 6 3 2 1 1 2 1 0 1 2 3 3 2 2 3 3 1 3 4 4 4 6 11 18 17 9
7 6 6 10 10 10 8 12 13 11 6 5 3 4 5 4 3 2 3 3 4 8 8 5 4 3 2 1 1 2 6 6 5 6 6 9 15 18
6 8 10 9 10 7 12 14 11 6 6 5 5 4 3 5 5 4 4 5 7 8 7 7 6 5 4 2 2 3 3 7 7 6 7 10 9 8
9 6 8 8 7 8 7 6 5 5 5 5 4 4 5 4 3 3 2 2 2 2 4 7 6 6 6 6 6 6 7 4 5 7 8 10 9 10
7 3 3 5 5 5 5 5 4 5 5 5 5 6 5 4 4 3 2 2 2 2 4 5 10 12 10 7 9 9 8 8 7 6 9 11 10 10
3 4 5 5 5 5 5 4 4 5 4 5 4 5 4 5 4 3 2 2 3 5 5 4 3 6 9 14 17 9 8 9 8 9 9 10 10 9
6 6 5 5 4 4 4 4 4 4 4 4 4 4 4 4 5 4 4 4 5 6 6 6 7 6 8 9 5 21 7 6 7 8 8 9 10 10
5 6 5 5 5 4 5 4 4 4 4 3 3 4 4 3 4 5 4 4 6 6 7 7 6 7 7 5 4 9 23 4 4 6 8 6 5 10
5 5 5 5 5 5 5 4 3 3 3 3 3 3 4 4 4 3 5 7 7 6 6 6 5 6 5 4 8 9 10 25 18 8 3 8 8 10
5 5 5 5 5 5 5 5 5 5 5 4 3 4 3 2 2 5 6 6 6 6 7 6 7 7 8 8 8 11 10 11 16 25 26 19 5 5
5 4 4 4 4 4 4 5 5 5 5 5 4 3 3 4 5 6 6 6 6 7 7 8 7 8 8 8 10 8 13 11 9 12 13 20 20 19
Wind_Direction
233 226 232 255 245 237 233 236 250 292 289 299 262 227 240 241 269 284 285 290 293 300 293 272 273 286 291 292 287 287 284 279 278 276 275 269 269 267
255 248 244 251 252 246 234 237 239 272 289 292 265 255 265 271 279 291 286 293 300 294 288 283 285 294 289 290 278 274 277 276 272 268 266 267 266 265
252 239 257 245 246 236 225 241 252 223 261 278 257 272 263 285 289 284 283 288 292 292 294 289 291 291 291 291 280 276 273 275 271 269 267 267 264 259
270 272 262 263 240 246 260 259 255 250 238 272 279 268 259 286 285 277 281 286 289 299 294 290 296 292 293 288 286 282 271 272 272 270 269 265 262 252
254 261 263 271 282 319 303 282 273 267 242 241 277 273 279 304 281 255 273 286 281 300 303 298 300 295 288 287 283 276 271 267 264 261 260 260 263 249
298 293 319 315 290 287 284 279 286 281 274 262 255 265 280 288 254 260 272 269 291 307 298 295 299 294 291 295 290 284 272 263 260 258 251 247 249 240
12 11 1 325 318 308 319 329 319 295 280 270 268 265 259 267 255 265 253 266 288 302 312 307 313 299 288 289 295 298 306 312 272 280 288 251 231 229
7 344 331 328 336 356 349 337 325 318 309 304 293 247 228 267 297 285 241 231 295 162 313 308 310 292 290 304 322 358 343 335 322 303 296 293 243 227
354 337 331 340 347 353 332 323 319 318 314 305 295 301 295 295 293 311 286 229 250 302 309 298 302 288 318 308 314 344 344 321 319 311 301 290 278 263
354 334 337 349 341 346 332 322 323 320 306 307 299 292 284 283 262 242 262 260 277 281 202 272 300 312 328 311 313 346 343 330 337 322 306 287 278 273
350 348 355 346 335 333 326 319 324 322 323 318 310 298 293 286 262 246 221 227 284 290 223 256 305 310 319 302 304 341 352 358 351 342 308 271 252 151
350 345 343 352 350 344 345 333 330 326 317 313 319 305 295 307 351 166 143 235 284 276 173 297 297 322 321 283 330 11 356 11 6 353 16 95 154 113
340 340 339 357 355 351 351 338 338 327 324 323 307 310 343 341 310 84 82 274 292 258 276 314 283 282 233 286 305 33 24 8 11 3 32 56 59 44
334 321 336 360 350 354 353 354 351 343 324 312 321 38 34 19 4 334 283 254 239 254 279 266 258 223 243 275 281 66 42 27 29 34 28 44 50 59
329 344 359 356 353 353 2 2 358 349 344 3 37 29 9 353 337 312 292 253 263 265 262 251 227 246 226 233 66 32 68 40 34 45 54 50 43 35
340 344 355 358 2 356 352 352 352 358 359 354 16 11 0 337 312 322 316 319 292 327 22 43 49 49 66 62 73 67 51 64 31 52 65 59 48 43
336 325 350 1 2 358 349 343 351 2 11 358 11 11 355 335 336 317 312 315 5 11 55 58 65 65 58 67 73 62 62 58 42 55 64 68 52 44
349 356 2 1 2 351 350 0 349 1 359 2 10 9 345 339 337 332 332 10 42 52 42 34 51 87 81 64 52 73 68 66 54 53 60 70 63 44
9 7 2 358 358 355 354 358 344 342 340 14 12 347 337 332 348 1 5 28 63 62 47 43 37 54 72 64 19 25 75 69 73 66 61 63 71 56
22 10 6 8 8 358 347 349 355 4 14 356 335 331 339 351 8 3 15 44 74 76 63 53 48 49 54 55 72 52 37 70 65 80 76 69 77 95
14 14 8 6 2 1 358 350 333 329 325 335 335 349 2 8 355 4 71 59 73 70 67 60 51 57 77 80 70 55 51 49 51 40 59 80 69 53
17 10 4 3 359 354 344 346 351 353 351 353 345 353 360 354 9 62 62 68 63 62 70 66 62 75 75 79 78 75 62 61 54 55 56 55 30 78
8 356 349 349 348 341 339 345 343 340 346 345 346 347 357 42 60 63 65 65 71 69 73 75 74 74 75 82 85 85 79 67 61 62 60 60 69 75